^^
Saratoga-Weather Station Historical Data
Daily Summary for July 3, 2021 Units:  Metric    English   Both
Daily Weekly Monthly Yearly Custom
  High: Low: Average:
Temperature: 2.1 °C 1.5 °C 1.9 °C
Dew Point: 0 °C -1 °C -0.6 °C
Humidity: 89% 80% 84%
Wind Speed: 9.7km/h 0km/h 1.5km/h
Wind Gust: 12.9km/h - -
Wind- - South
Pressure: 1012.2 hPa 1011.2 hPa -
Precipitation: 0.0 mm    
Historical Graphs
 
 
Tabular Data for July 3, 2021
Time Temperature Dew Point Pressure Wind Wind Speed Wind Gust Humidity Rainfall Rate (Hourly) solar
00:02 1.6 °C 0 °C 1012.2 hPa North 1.4 km/h 1.6 km/h 89% 0.0 mm 0 W/m2
00:07 1.6 °C 0 °C 1012.2 hPa Calm   1.6 km/h 89% 0.0 mm 0 W/m2
00:12 1.6 °C 0 °C 1012.2 hPa Calm   1.6 km/h 89% 0.0 mm 0 W/m2
00:17 1.6 °C 0 °C 1012.2 hPa NE 1.4 km/h 3.2 km/h 89% 0.0 mm 0 W/m2
00:22 1.6 °C 0 °C 1012.2 hPa Calm   1.6 km/h 89% 0.0 mm 0 W/m2
00:27 1.6 °C 0 °C 1012.2 hPa North 1.4 km/h 3.2 km/h 89% 0.0 mm 0 W/m2
00:32 1.6 °C 0 °C 1012.2 hPa Calm   3.2 km/h 89% 0.0 mm 0 W/m2
00:37 1.6 °C -0.2 °C 1012.2 hPa Calm   1.6 km/h 88% 0.0 mm 0 W/m2
00:42 1.6 °C -0.2 °C 1012.2 hPa Calm   3.2 km/h 88% 0.0 mm 0 W/m2
00:47 1.6 °C -0.2 °C 1011.9 hPa Calm     88% 0.0 mm 0 W/m2
00:52 1.6 °C -0.2 °C 1011.9 hPa Calm   3.2 km/h 88% 0.0 mm 0 W/m2
00:57 1.6 °C -0.2 °C 1011.9 hPa Calm     88% 0.0 mm 0 W/m2
01:02 1.6 °C -0.2 °C 1011.9 hPa NE 1.4 km/h 3.2 km/h 88% 0.0 mm 0 W/m2
01:07 1.6 °C -0.2 °C 1011.9 hPa Calm     88% 0.0 mm 0 W/m2
01:12 1.6 °C -0.2 °C 1011.9 hPa Calm   3.2 km/h 88% 0.0 mm 0 W/m2
01:17 1.6 °C -0.2 °C 1011.9 hPa Calm   1.6 km/h 88% 0.0 mm 0 W/m2
01:22 1.6 °C -0.2 °C 1011.9 hPa Calm     88% 0.0 mm 0 W/m2
01:27 1.6 °C 0 °C 1011.9 hPa Calm   1.6 km/h 89% 0.0 mm 0 W/m2
01:32 1.6 °C 0 °C 1011.9 hPa Calm     89% 0.0 mm 0 W/m2
01:37 1.6 °C 0 °C 1011.9 hPa Calm     89% 0.0 mm 0 W/m2
01:42 1.5 °C -0.1 °C 1011.9 hPa NNW 3.2 km/h 3.2 km/h 89% 0.0 mm 0 W/m2
01:47 1.5 °C -0.3 °C 1011.9 hPa NE 3.2 km/h 3.2 km/h 88% 0.0 mm 0 W/m2
01:52 1.6 °C -0.2 °C 1011.9 hPa Calm   1.6 km/h 88% 0.0 mm 0 W/m2
01:57 1.6 °C -0.2 °C 1011.9 hPa Calm   1.6 km/h 88% 0.0 mm 0 W/m2
02:02 1.6 °C -0.2 °C 1011.9 hPa Calm   1.6 km/h 88% 0.0 mm 0 W/m2
02:07 1.7 °C -0.1 °C 1011.9 hPa NNE 1.4 km/h 3.2 km/h 88% 0.0 mm 0 W/m2
02:12 1.7 °C -0.2 °C 1011.9 hPa Calm     87% 0.0 mm 0 W/m2
02:17 1.7 °C -0.2 °C 1011.9 hPa WNW 1.4 km/h 1.6 km/h 87% 0.0 mm 0 W/m2
02:22 1.7 °C -0.4 °C 1011.9 hPa Calm   4.8 km/h 86% 0.0 mm 0 W/m2
02:27 1.8 °C -0.3 °C 1011.9 hPa SE 1.4 km/h 1.6 km/h 86% 0.0 mm 0 W/m2
02:32 1.8 °C -0.5 °C 1011.9 hPa Calm   6.4 km/h 85% 0.0 mm 0 W/m2
02:37 1.8 °C -0.5 °C 1011.9 hPa West 4.7 km/h 4.8 km/h 85% 0.0 mm 0 W/m2
02:42 1.9 °C -0.5 °C 1011.9 hPa NE 1.4 km/h 3.2 km/h 84% 0.0 mm 0 W/m2
02:47 1.9 °C -0.5 °C 1011.9 hPa NW 3.2 km/h 3.2 km/h 84% 0.0 mm 0 W/m2
02:52 1.9 °C -0.7 °C 1011.9 hPa Calm   6.4 km/h 83% 0.0 mm 0 W/m2
02:57 1.9 °C -0.7 °C 1011.9 hPa North 1.4 km/h 3.2 km/h 83% 0.0 mm 0 W/m2
03:02 1.9 °C -0.7 °C 1011.9 hPa NNW 1.4 km/h 6.4 km/h 83% 0.0 mm 0 W/m2
03:07 2 °C -0.7 °C 1011.9 hPa Calm   6.4 km/h 82% 0.0 mm 0 W/m2
03:12 2.1 °C -0.8 °C 1011.9 hPa Calm   3.2 km/h 81% 0.0 mm 0 W/m2
03:17 2.1 °C -0.8 °C 1011.9 hPa Calm   3.2 km/h 81% 0.0 mm 0 W/m2
03:22 2.1 °C -0.8 °C 1011.9 hPa North 1.4 km/h 6.4 km/h 81% 0.0 mm 0 W/m2
03:27 2.1 °C -0.8 °C 1011.9 hPa NW 1.4 km/h 4.8 km/h 81% 0.0 mm 0 W/m2
03:32 2.1 °C -0.8 °C 1011.9 hPa North 3.2 km/h 3.2 km/h 81% 0.0 mm 0 W/m2
03:37 2.1 °C -0.8 °C 1011.9 hPa NE 1.4 km/h 3.2 km/h 81% 0.0 mm 0 W/m2
03:42 2.1 °C -1 °C 1011.9 hPa North 1.4 km/h 3.2 km/h 80% 0.0 mm 0 W/m2
03:48 2.1 °C -0.8 °C 1011.9 hPa Calm   3.2 km/h 81% 0.0 mm 0 W/m2
03:53 2.1 °C -0.8 °C 1011.9 hPa NNE 1.4 km/h 3.2 km/h 81% 0.0 mm 0 W/m2
03:58 2.1 °C -0.8 °C 1011.5 hPa WNW 3.2 km/h 8 km/h 81% 0.0 mm 0 W/m2
04:03 2.1 °C -0.8 °C 1011.5 hPa West 1.4 km/h 4.8 km/h 81% 0.0 mm 0 W/m2
04:08 2.1 °C -0.8 °C 1011.5 hPa West 1.4 km/h 8 km/h 81% 0.0 mm 0 W/m2
04:13 2.1 °C -0.8 °C 1011.5 hPa North 1.4 km/h 3.2 km/h 81% 0.0 mm 0 W/m2
04:18 2.1 °C -0.8 °C 1011.5 hPa Calm   3.2 km/h 81% 0.0 mm 0 W/m2
04:23 2.1 °C -0.8 °C 1011.5 hPa ENE 4.7 km/h 4.8 km/h 81% 0.0 mm 0 W/m2
04:28 2.1 °C -1 °C 1011.5 hPa NNE 1.4 km/h 8 km/h 80% 0.0 mm 0 W/m2
04:33 2.1 °C -1 °C 1011.5 hPa ENE 1.4 km/h 3.2 km/h 80% 0.0 mm 0 W/m2
04:38 2.1 °C -0.8 °C 1011.5 hPa ENE 3.2 km/h 9.7 km/h 81% 0.0 mm 0 W/m2
04:43 2.1 °C -0.8 °C 1011.5 hPa Calm   3.2 km/h 81% 0.0 mm 0 W/m2
04:48 2.1 °C -0.8 °C 1011.5 hPa Calm   9.7 km/h 81% 0.0 mm 0 W/m2
04:53 2.1 °C -0.8 °C 1011.5 hPa Calm   4.8 km/h 81% 0.0 mm 0 W/m2
04:58 2.1 °C -0.8 °C 1011.5 hPa ESE 1.4 km/h 4.8 km/h 81% 0.0 mm 0 W/m2
05:03 2 °C -0.9 °C 1011.2 hPa WSW 1.4 km/h 1.6 km/h 81% 0.0 mm 0 W/m2
05:08 2 °C -0.9 °C 1011.5 hPa Calm   1.6 km/h 81% 0.0 mm 0 W/m2
05:13 2 °C -0.9 °C 1011.2 hPa NNW 1.4 km/h 6.4 km/h 81% 0.0 mm 0 W/m2
05:18 2 °C -0.9 °C 1011.2 hPa NNE 1.4 km/h 6.4 km/h 81% 0.0 mm 0 W/m2
05:23 2 °C -0.7 °C 1011.2 hPa NE 3.2 km/h 4.8 km/h 82% 0.0 mm 0 W/m2
05:28 2 °C -0.7 °C 1011.2 hPa NE 1.4 km/h 6.4 km/h 82% 0.0 mm 0 W/m2
05:33 1.9 °C -0.8 °C 1011.2 hPa NNW 1.4 km/h 4.8 km/h 82% 0.0 mm 0 W/m2
05:38 1.9 °C -0.8 °C 1011.2 hPa NW 3.2 km/h 4.8 km/h 82% 0.0 mm 0 W/m2
05:43 1.9 °C -0.8 °C 1011.2 hPa NNW 3.2 km/h 11.3 km/h 82% 0.0 mm 0 W/m2
05:48 2 °C -0.7 °C 1011.2 hPa Calm   3.2 km/h 82% 0.0 mm 0 W/m2
05:53 2 °C -0.7 °C 1011.2 hPa Calm   11.3 km/h 82% 0.0 mm 0 W/m2
05:58 2 °C -0.7 °C 1011.2 hPa Calm   3.2 km/h 82% 0.0 mm 0 W/m2
06:03 2 °C -0.6 °C 1011.2 hPa NNW 1.4 km/h 4.8 km/h 83% 0.0 mm 0 W/m2
06:08 1.9 °C -0.8 °C 1011.2 hPa NW 3.2 km/h 6.4 km/h 82% 0.0 mm 0 W/m2
06:13 1.9 °C -0.8 °C 1011.2 hPa NNE 1.4 km/h 4.8 km/h 82% 0.0 mm 0 W/m2
06:18 1.9 °C -0.7 °C 1011.2 hPa WNW 1.4 km/h 3.2 km/h 83% 0.0 mm 0 W/m2
06:23 1.9 °C -0.8 °C 1011.2 hPa NNW 3.2 km/h 3.2 km/h 82% 0.0 mm 0 W/m2
06:28 1.9 °C -0.8 °C 1011.2 hPa NNW 3.2 km/h 6.4 km/h 82% 0.0 mm 0 W/m2
06:33 1.9 °C -0.8 °C 1011.2 hPa ENE 3.2 km/h 4.8 km/h 82% 0.0 mm 0 W/m2
06:38 1.9 °C -0.8 °C 1011.5 hPa NE 1.4 km/h 4.8 km/h 82% 0.0 mm 0 W/m2
06:43 1.9 °C -0.8 °C 1011.5 hPa Calm   8 km/h 82% 0.0 mm 0 W/m2
06:48 1.9 °C -0.8 °C 1011.5 hPa East 1.4 km/h 3.2 km/h 82% 0.0 mm 0 W/m2
06:53 1.9 °C -0.8 °C 1011.5 hPa Calm   6.4 km/h 82% 0.0 mm 0 W/m2
06:58 1.9 °C -0.8 °C 1011.2 hPa NNE 4.7 km/h 6.4 km/h 82% 0.0 mm 0 W/m2
07:03 1.9 °C -0.8 °C 1011.5 hPa WNW 1.4 km/h 9.7 km/h 82% 0.0 mm 0 W/m2
07:08 2 °C -0.7 °C 1011.5 hPa NNW 1.4 km/h 4.8 km/h 82% 0.0 mm 0 W/m2
07:13 2 °C -0.7 °C 1011.2 hPa ENE 1.4 km/h 3.2 km/h 82% 0.0 mm 0 W/m2
07:18 2 °C -0.7 °C 1011.2 hPa Calm   3.2 km/h 82% 0.0 mm 0 W/m2
07:23 2 °C -0.7 °C 1011.2 hPa North 4.7 km/h 12.9 km/h 82% 0.0 mm 0 W/m2
07:28 2 °C -0.7 °C 1011.5 hPa NNW 3.2 km/h 6.4 km/h 82% 0.0 mm 0 W/m2
07:33 2 °C -0.7 °C 1011.2 hPa NE 1.4 km/h 12.9 km/h 82% 0.0 mm 0 W/m2
07:38 2 °C -0.7 °C 1011.2 hPa NNW 7.9 km/h 8 km/h 82% 0.0 mm 0 W/m2
07:43 2 °C -0.7 °C 1011.5 hPa ESE 1.4 km/h 6.4 km/h 82% 0.0 mm 0 W/m2
07:48 2 °C -0.7 °C 1011.5 hPa NE 1.4 km/h 6.4 km/h 82% 0.0 mm 0 W/m2
07:53 2 °C -0.9 °C 1011.2 hPa NW 3.2 km/h 6.4 km/h 81% 0.0 mm 0 W/m2
07:58 2 °C -0.9 °C 1011.5 hPa ESE 1.4 km/h 3.2 km/h 81% 0.0 mm 0 W/m2
08:03 1.9 °C -0.8 °C 1011.2 hPa NW 1.4 km/h 6.4 km/h 82% 0.0 mm 0 W/m2
08:08 1.9 °C -0.8 °C 1011.2 hPa North 3.2 km/h 3.2 km/h 82% 0.0 mm 0 W/m2
08:13 1.9 °C -0.8 °C 1011.2 hPa Calm   6.4 km/h 82% 0.0 mm 0 W/m2
08:18 1.9 °C -0.8 °C 1011.2 hPa NE 1.4 km/h 4.8 km/h 82% 0.0 mm 0 W/m2
08:23 1.9 °C -0.8 °C 1011.2 hPa East 9.7 km/h 9.7 km/h 82% 0.0 mm 0 W/m2
08:28 1.9 °C -0.8 °C 1011.2 hPa Calm   6.4 km/h 82% 0.0 mm 0 W/m2
08:33 1.9 °C -0.8 °C 1011.2 hPa Calm   8 km/h 82% 0.0 mm 0 W/m2
08:38 1.9 °C -0.8 °C 1011.2 hPa ENE 3.2 km/h 4.8 km/h 82% 0.0 mm 0 W/m2
08:43 1.9 °C -0.8 °C 1011.2 hPa NW 1.4 km/h 8 km/h 82% 0.0 mm 0 W/m2
08:48 1.9 °C -0.7 °C 1011.2 hPa North 3.2 km/h 3.2 km/h 83% 0.0 mm 0 W/m2
08:53 1.9 °C -0.8 °C 1011.2 hPa NE 1.4 km/h 4.8 km/h 82% 0.0 mm 0 W/m2
08:58 1.9 °C -0.8 °C 1011.2 hPa NW 1.4 km/h 3.2 km/h 82% 0.0 mm 0 W/m2
09:03 1.9 °C -0.7 °C 1011.2 hPa NW 3.2 km/h 6.4 km/h 83% 0.0 mm 0 W/m2
09:08 1.9 °C -0.7 °C 1011.2 hPa NNW 1.4 km/h 8 km/h 83% 0.0 mm 5 W/m2
09:13 1.9 °C -0.7 °C 1011.2 hPa NNE 1.4 km/h 4.8 km/h 83% 0.0 mm 7 W/m2
09:18 1.9 °C -0.7 °C 1011.2 hPa Calm   8 km/h 83% 0.0 mm 7 W/m2
09:23 1.9 °C -0.7 °C 1011.2 hPa NE 1.4 km/h 4.8 km/h 83% 0.0 mm 9 W/m2
09:28 1.9 °C -0.7 °C 1011.5 hPa NNW 3.2 km/h 4.8 km/h 83% 0.0 mm 7 W/m2
09:33 1.9 °C -0.7 °C 1011.5 hPa NNW 1.4 km/h 4.8 km/h 83% 0.0 mm 9 W/m2
09:38 1.9 °C -0.7 °C 1011.5 hPa WSW 4.7 km/h 6.4 km/h 83% 0.0 mm 11 W/m2
09:43 1.9 °C -0.7 °C 1011.5 hPa SE 1.4 km/h 4.8 km/h 83% 0.0 mm 11 W/m2
09:48 1.9 °C -0.7 °C 1011.5 hPa Calm   3.2 km/h 83% 0.0 mm 12 W/m2
09:53 1.9 °C -0.7 °C 1011.5 hPa NNW 3.2 km/h 3.2 km/h 83% 0.0 mm 12 W/m2
09:59 1.9 °C -0.7 °C 1011.5 hPa NW 1.4 km/h 4.8 km/h 83% 0.0 mm 14 W/m2
10:04 1.9 °C -0.7 °C 1011.5 hPa Calm   3.2 km/h 83% 0.0 mm 16 W/m2
10:09 1.9 °C -0.7 °C 1011.5 hPa North 1.4 km/h 4.8 km/h 83% 0.0 mm 16 W/m2
10:14 1.9 °C -0.7 °C 1011.5 hPa ENE 1.4 km/h 4.8 km/h 83% 0.0 mm 19 W/m2
10:19 1.9 °C -0.7 °C 1011.5 hPa ENE 3.2 km/h 6.4 km/h 83% 0.0 mm 19 W/m2
10:24 1.9 °C -0.7 °C 1011.9 hPa WNW 1.4 km/h 3.2 km/h 83% 0.0 mm 16 W/m2
10:29 1.9 °C -0.7 °C 1011.9 hPa NNE 1.4 km/h 6.4 km/h 83% 0.0 mm 16 W/m2
10:34 1.9 °C -0.7 °C 1011.9 hPa WNW 3.2 km/h 6.4 km/h 83% 0.0 mm 18 W/m2
10:39 1.9 °C -0.7 °C 1011.9 hPa Calm   4.8 km/h 83% 0.0 mm 19 W/m2
10:44 1.9 °C -0.7 °C 1011.9 hPa Calm   6.4 km/h 83% 0.0 mm 21 W/m2
10:49 1.9 °C -0.7 °C 1011.9 hPa North 1.4 km/h 3.2 km/h 83% 0.0 mm 25 W/m2
10:54 1.9 °C -0.7 °C 1011.9 hPa NNE 1.4 km/h 4.8 km/h 83% 0.0 mm 23 W/m2
10:59 1.9 °C -0.7 °C 1011.9 hPa NNW 3.2 km/h 4.8 km/h 83% 0.0 mm 25 W/m2
11:04 1.9 °C -0.7 °C 1011.9 hPa NNW 1.4 km/h 4.8 km/h 83% 0.0 mm 23 W/m2
11:09 1.9 °C -0.7 °C 1011.9 hPa North 1.4 km/h 3.2 km/h 83% 0.0 mm 19 W/m2
11:14 1.9 °C -0.7 °C 1011.9 hPa WNW 1.4 km/h 3.2 km/h 83% 0.0 mm 21 W/m2
11:19 1.9 °C -0.7 °C 1011.9 hPa ENE 1.4 km/h 6.4 km/h 83% 0.0 mm 23 W/m2
11:24 1.9 °C -0.7 °C 1011.9 hPa NW 6.4 km/h 6.4 km/h 83% 0.0 mm 26 W/m2
11:29 1.9 °C -0.5 °C 1011.9 hPa NNE 1.4 km/h 3.2 km/h 84% 0.0 mm 28 W/m2
11:34 1.9 °C -0.5 °C 1011.9 hPa Calm   4.8 km/h 84% 0.0 mm 26 W/m2
11:39 1.8 °C -0.6 °C 1011.9 hPa Calm   1.6 km/h 84% 0.0 mm 26 W/m2
11:44 1.8 °C -0.6 °C 1011.9 hPa NNW 3.2 km/h 9.7 km/h 84% 0.0 mm 32 W/m2
11:49 1.8 °C -0.6 °C 1011.9 hPa Calm   4.8 km/h 84% 0.0 mm 32 W/m2
11:54 1.8 °C -0.6 °C 1011.9 hPa Calm   6.4 km/h 84% 0.0 mm 33 W/m2
Juneau County Weather
Compliments of Weather Underground - 2 mb